Regional Weather Roundup
Issued by NWS

Home | Current Version | Previous Version | Graphics & Text | Print | Product List | Glossary On
Versions: 1 2 3 4 5 6 7 8 9 10 11 12 13 14 15 16 17 18 19 20 21 22 23 24 25 26 27 28 29 30 31 32 33 34 35 36 37 38 39 40 41 42 43 44 45 46 47 48 49 50
000
ASUS45 KSLC 230610
RWRUT

UTAH REGIONAL WEATHER ROUNDUP
NATIONAL WEATHER SERVICE SALT LAKE CITY UT
1100 PM MST SAT NOV 22 2014

UTZ001>011-023>025-230700-

NORTHERN UTAH

CITY           SKY/WX    TMP DP  RH WIND       PRES   REMARKS
BRIGHAM CITY   CLOUDY    37  32  84 CALM      29.93R
HILL AFB       CLOUDY    36  34  93 SW10      29.92R WCI  28
LOGAN          CLOUDY    36  30  79 N6        29.90R WCI  31
OGDEN          MOCLDY    36  33  89 SW8       29.92R WCI  30
PROVO AIRPORT  CLOUDY    36  32  87 NW6       29.94R WCI  31
SALT LAKE CITY CLOUDY    40  30  67 NW10      29.94R WCI  33
VERNAL         CLOUDY    32  31  96 NW6       29.80S WCI  26
WENDOVER       CLOUDY    39  25  56 NW26G36   29.99S WCI  28
HEBER CITY     PTCLDY    32  32 100 CALM      29.88R
WEST JORDAN    MOCLDY    34  34 100 N7        29.94R WCI  28

$$

UTZ012>022-026-027-230700-

SOUTHERN/CENTRAL UTAH

CITY           SKY/WX    TMP DP  RH WIND       PRES   REMARKS
BLANDING       PTCLDY    36  24  62 W9        29.88F WCI  29
BRYCE CANYON   FLURRIES  33  27  78 NW17G26   29.93R WCI  22
CEDAR CITY     CLOUDY    40  31  70 N9        29.97R WCI  34
DELTA          CLOUDY    34  34  99 SW7       29.98R WCI  28
MILFORD        CLOUDY    36  33  89 NW7       29.98R WCI  30
MOAB/CYNLANDS  CLOUDY    39  35  86 SW6       29.82S WCI  35
PRICE          MOCLDY    29  24  82 CALM      29.82F
ST GEORGE      PTCLDY    45  21  39 NE5       29.92R
KANAB          PTCLDY    43  21  42 SW3       29.96R

$$

REGIONAL REPORTS     COLORADO/ARIZONA

CITY           SKY/WX    TMP DP  RH WIND       PRES   REMARKS
CRAIG, CO      FLURRIES  33  30  88 SW10      29.77F WCI  25
GRAND JUNCTION LGT RAIN  34  33  96 NW6       29.83R WCI  29
RIFLE          LGT RAIN  34  32  92 N3        29.78S
MONTROSE       CLOUDY    39  29  67 SE3       29.81R
CORTEZ         CLOUDY    38  36  92 E3        29.84F
PAGE, AZ       NOT AVBL
GRAND CANYON   PTCLDY    37  18  46 SW13      29.99S WCI  29
KINGMAN        CLEAR     45  24  43 E9        29.96R
FLAGSTAFF      CLEAR     37  18  46 W10       30.00F WCI  30

$$

REGIONAL REPORTS    NEVADA/IDAHO/WYOMING

CITY           SKY/WX    TMP DP  RH WIND       PRES   REMARKS
LAS VEGAS, NV  CLEAR     58  30  34 W5        29.89R
ELY            PTCLDY    32  50 100 NW17G29   30.07R WCI  21
ELKO           MOCLDY    33  26  75 SW6       30.10R WCI  28
POCATELLO, ID  CLOUDY    34  33  96 SW24G32   29.87R WCI  21
BURLEY         LGT RAIN  35  28  75 W22G32    29.93R WCI  23
EVANSTON, WY   MOCLDY    27  23  85 W14       29.86R WCI  16
ROCK SPRINGS   CLOUDY    29  23  78 W16       29.78R WCI  17
KEMMERER       MOCLDY    25  23  93 W16       29.81S WCI  12

$$



USA.gov is the U.S. government's official web portal to all federal, state and local government web resources and services.